Location: Enikep?du
(16.5133°N, 80.7066°E)
Time: 18:40:03
(UTC+00:00)

Cosmos 2297 Rocket - Pass Details

Date: 20 January 2020
Orbit: 838 x 845 km, 71.0° (Epoch: 25 February)

Event Time Altitude Azimuth Distance (km) Brightness Sun altitude
Exits shadow 00:32:17 - 323° (NW) 2,887 4.5 -9.2°
Reaches altitude 10° 00:33:32 10° 318° (NW) 2,460 4.1 -8.9°
Maximum altitude 00:38:29 32° 257° (WSW) 1,407 3.0 -7.8°
Drops below altitude 10° 00:43:26 10° 195° (SSW) 2,455 4.7 -6.7°
Sets 00:46:07 0° 185° (S) 3,388 5.5 -6.1°
